CZ-6A DEB, 63923

Orbit data source: Space-Track

CZ-6A DEB, 63923 is space debris in LEO originally from a launch on Sun, 11 May 2025 UTC launched from the Taiyaun Space Center, China (TSC). Debris objects in space refer to the collection of defunct objects orbiting the Earth. Examples of debris include non-operational satellites, rocket bodies, and fragments generated from explosions, collisions, or faulty payload assembly.

Loading next visibility...
Identifier
63923, 2025-096F
Orbit
LEO
Country
Flag of CNCN / PRC
Related business
Manufacturer
Unknown
Mission
Spacecraft
Bus & Motor
Unknown
Mass
Unknown
Launch date (UTC)
2025-05-11 (1 year ago)
Launch vehicle
Unknown
Launch site
Taiyaun Space Center, China (TSC)
Object type
Payload
Rocket body
Debris
Shape & HBR
Unknown shape, 3.8 m
Radar Cross Section
Large (>1 m²)

Expand to show TLE details & history
Last TLE update: 13 hours ago

TLE from 13 hours ago
0 CZ-6A DEB
1 63923U 25096F   26171.45322617  .00000213  00000-0  78956-4 0  9997
2 63923  85.9938 182.0923 0014123  59.2998 300.9583 14.27269573 57618
Epoch: 2026-06-20T10:52Z
TLE epoch observation values (Epoch: 2026-06-20T10:52:38.741Z)
Latitude
0.00001°
Longitude
110.26325°
Altitude
798.701 km
Speed
7.457 km/s
True Right ascension
12h 08m 22s
True Declination
0° 00' 00"
Sunlit
Object was in daylight at epoch
Visualization orbit readout
Latitude
Unknown
Longitude
Unknown
Altitude
Unknown
Speed
Unknown
Apparent Right ascension
Unknown
Apparent Declination
Unknown
Sunlit
N/A
Visualization observer readout
Local Sidereal Time
10:20:18
Azimuth
Unknown
Elevation
Unknown
Doppler factor
Unknown
Orbital elements
Apogee altitude
807.99 km
Perigee altitude
787.72 km
Semi-major axis
7,175.992 km
Eccentricity
0.00141
Inclination
85.9938°
RAAN
182.0923°
Arg. of periapsis
59.2998°
True anomaly
300.81939°
Mean anomaly
300.9583°
Eccentric anomaly
300.88886°
Mean motion
3.57043 °/min
Orbital period
100.83 mins
BSTAR
0.000078956
Loading maneuver chart data...
Computing Atmospheric mass density...
Loading historical data...
Loading historical data...
Loading historical data...
Loading historical data...
Loading historical data...
Loading historical data...
Loading historical data...
Other satellites on launch #96 in the year 2025 (2025-05-11 UTC)

Documentation

Showing up to 5 results
|